Weather in Abinsk

Russia / Krasnodar Krai     44°51′58″N   38°09′04″E
temp.,
°C
wind,
m/s
gust,
m/s
humid.,
%
clouds,
%
prec.,
mm/h
press.,
hPa
HPBL,
m
10 may, mon
mon1000:00+5sw33648 0.0 102450
03:00+5sw227118 0.1 102529
06:00+5wsw227148 0.0 102429
09:00+11nw465372 0.3 10241613
12:00+12nw564598 0.6 10232211
15:00+12nw564485 0.6 10231979
18:00+11wnw365145 0.0 10211265
21:00+6ssw476021 0.0 1021136
11 may, tue
tue1100:00+8sw61266100 0.0 1019654
03:00+9sw71267100 0.1 1017930
06:00+8sw71289100 1.1 10161172
09:00+8sw71393100 5.3 10151417
12:00+8sw71392100 3.1 10141195
15:00+8sw71394100 5.8 10151090
18:00+9ssw41096100 5.8 1014855
21:00+9s4996100 11.3 1015731
12 may, wed
wed1200:00+9s3896100 2.7 1015657
03:00+8s41192100 4.2 1015763
06:00+8s31089100 0.2 1015575
09:00+11s277696 0.2 1015754
12:00+16s255290 0.0 10141048
15:00+17wsw0250100 0.0 1014986
18:00+16ne24705 0.0 1014448
21:00+10sse11895 0.0 101410
13 may, thu
thu1300:00+9nw11930 0.0 101310
03:00+9nw01940 0.0 101210
06:00+10ne119346 0.0 101214
09:00+17ene12655 0.0 1012300
12:00+23ne334994 0.0 1011821
15:00+24ene4555100 0.0 1011759
18:00+21e267912 0.0 1010317
21:00+16se119020 0.0 101011
14 may, fri
fri1400:00+16s227678 0.0 101012
03:00+16ssw22626 0.0 101014
06:00+16sse11625 0.0 101111
09:00+24ene134948 0.0 1011350
12:00+27ne224564 0.0 1011723
15:00+28ne345172 0.0 1010717
18:00+25ene127213 0.0 101034
21:00+18wsw22840 0.0 101015